Home > Weather > Novi Sad > Past weeks

Flag for Serbia Weather for the Past 2 Weeks in Novi Sad, Serbia

Now
57 °F

Clear.


Feels Like: 55 °F
Forecast: 41 / 54 °F
Wind: 10 mph from Southeast

Location: Belgrade Surcin Airport

Current Time: Feb 9, 2016 at 5:38:50 PM

Latest Report: Feb 9, 2016 at 5:00 PM


Visibility: 10 mi

Pressure: 29.83 "Hg

Humidity: 59%

Dew point: 43 °F

Location of Novi SadLocation

Historic Weather in Novi Sad — Graph

°F

Novi Sad Temperature Yesterday

Maximum temperature yesterday: 61 °F (at 2:30 PM)
Minimum temperature yesterday: 37 °F (at 2:30 AM)
Average temperature yesterday: 49 °F

High & Low Weather Summary for the Past Weeks

 TemperatureHumidityPressure
High64 °F (Feb 9, 11:30 AM)100% (Jan 26, 2:00 AM)30.48 "Hg (Jan 26, 2:00 AM)
Low30 °F (Jan 27, 8:00 AM)38% (Feb 7, 1:00 PM)29.83 "Hg (Feb 3, 7:30 PM)
Average45 °F80%30.21 "Hg
* Reported Jan 25 4:00 PM — Feb 9 4:30 PM, Novi Sad, Weather by CustomWeather, © 2016

Note: Actual official high and low records may vary slightly from our data, if they occured in-between our weather recording intervals... More about our weather records

Advertising

Novi Sad Weather History for the Previous 24 Hours

 ConditionsComfort  
Time TempWeatherWind HumidityBarometerVisibility
4:30 PM
Tue, Feb 9
59 °FSunny.8 mph55%29.86 "Hg10 mi
4:00 PM61 °FSunny.8 mph48%29.86 "Hg10 mi
3:30 PM64 °FSunny.5 mph43%29.89 "Hg10 mi
3:00 PM64 °FSunny.5 mph43%29.89 "Hg10 mi
2:00 PM64 °FSunny.7 mph40%29.92 "Hg10 mi
1:30 PM64 °FPassing clouds.5 mph40%29.95 "HgN/A
1:00 PM64 °FPassing clouds.6 mph43%29.95 "HgN/A
12:30 PM64 °FPassing clouds.5 mph43%29.98 "HgN/A
11:30 AM64 °FSunny.7 mph43%30.01 "Hg10 mi
11:00 AM63 °FSunny.8 mph45%30.01 "Hg10 mi
10:30 AM61 °FSunny.9 mph52%30.01 "Hg10 mi
10:00 AM59 °FSunny.10 mph51%30.01 "Hg10 mi
9:00 AM55 °FSunny.10 mph55%30.01 "Hg10 mi
8:30 AM54 °FSunny.9 mph58%30.01 "Hg10 mi
8:00 AM52 °FSunny.9 mph58%30.01 "Hg10 mi
7:00 AM52 °FSunny.8 mph58%30.01 "Hg10 mi
6:30 AM50 °FClear.8 mph62%29.98 "Hg10 mi
6:00 AM52 °FClear.9 mph58%29.98 "Hg10 mi
5:30 AM52 °FClear.10 mph58%29.98 "Hg10 mi
5:00 AM52 °FClear.10 mph58%29.98 "Hg10 mi
4:30 AM52 °FClear.9 mph58%29.98 "Hg10 mi
4:00 AM52 °FClear.10 mph58%29.98 "Hg10 mi
3:30 AM52 °FClear.10 mph58%29.98 "Hg10 mi
3:00 AM52 °FClear.9 mph58%29.98 "Hg10 mi
2:30 AM52 °FClear.9 mph58%30.01 "Hg10 mi
2:00 AM52 °FClear.8 mph58%30.01 "Hg10 mi
1:30 AM52 °FClear.7 mph58%30.01 "Hg10 mi
1:00 AM50 °FClear.8 mph62%30.01 "Hg10 mi
12:30 AM48 °FClear.6 mph66%30.04 "Hg10 mi
12:00 AM52 °FClear.8 mph54%30.04 "Hg10 mi
11:30 PM
Mon, Feb 8
52 °FClear.8 mph54%30.04 "Hg10 mi
11:00 PM52 °FClear.8 mph54%30.04 "Hg10 mi
10:30 PM50 °FClear.7 mph58%30.04 "Hg10 mi
10:00 PM52 °FClear.8 mph54%30.04 "Hg10 mi
9:30 PM50 °FClear.8 mph62%30.04 "Hg10 mi
9:00 PM50 °FClear.9 mph58%30.04 "Hg10 mi
8:30 PM50 °FClear.9 mph62%30.01 "Hg10 mi
8:00 PM50 °FClear.12 mph58%30.01 "Hg10 mi
7:30 PM50 °FClear.12 mph58%30.01 "Hg10 mi
7:00 PM50 °FClear.12 mph58%30.01 "Hg10 mi
6:30 PM52 °FClear.13 mph58%30.01 "Hg10 mi
6:00 PM52 °FClear.15 mph58%30.01 "Hg10 mi
5:30 PM54 °FClear.14 mph54%30.01 "Hg10 mi
5:00 PM54 °FClear.13 mph54%30.01 "Hg10 mi
Weather by CustomWeather, © 2016

See weather overviewHow to use our weather pages